Dewpoint
61 61 62 63 63 64 64 64 64 64 65 65 64 64 64 64 63 63 64 64 64 63 63 63 62 62 62 61 62 62 62 61 60 59 59 59 59 58 59 57 57 57 57 55 56 55 55 55 56 60 60 59 58 59 60 59 59 59 60 60 60 58 58
61 61 63 63 63 64 63 63 64 64 64 64 64 64 64 63 64 63 64 64 64 63 64 63 62 62 62 62 62 61 61 61 61 60 60 59 59 58 58 54 56 56 55 55 56 53 54 55 56 57 57 59 57 57 57 57 59 59 60 60 59 57 57
61 61 63 63 63 63 63 63 63 64 63 63 62 63 63 63 63 63 64 64 64 64 64 62 62 62 62 62 62 61 61 61 61 61 60 60 60 58 59 56 55 54 54 54 54 53 55 56 56 56 57 57 56 57 56 56 58 59 60 59 58 57 56
60 61 61 62 62 62 62 62 62 62 62 62 62 62 63 63 63 63 64 64 64 64 64 62 62 62 61 62 62 61 61 61 61 60 59 59 60 59 58 57 57 57 56 54 55 54 53 53 55 56 57 58 57 56 56 56 58 59 60 58 57 56 55
61 60 61 61 62 62 62 61 62 62 62 62 62 63 63 63 63 63 64 64 64 63 63 63 62 62 62 61 62 61 61 61 61 60 60 59 59 59 58 57 57 57 55 55 56 56 55 55 55 56 57 57 56 54 56 56 57 58 59 58 57 56 55
61 60 60 61 61 62 62 62 61 61 61 61 61 61 62 62 63 62 62 62 63 63 63 62 62 62 61 61 61 61 61 61 61 60 60 59 60 59 59 57 57 57 56 55 57 56 54 55 56 56 57 57 54 54 55 55 52 57 58 58 56 55 54
61 61 61 61 61 62 62 62 62 61 61 61 61 61 61 62 62 62 62 62 63 63 62 62 62 62 62 61 61 61 61 61 61 60 60 59 59 59 59 58 58 58 56 57 57 56 56 56 55 56 56 55 52 54 54 53 49 54 51 53 53 54 53
61 61 61 61 61 61 61 62 62 62 61 61 61 61 62 62 62 62 62 62 62 62 62 62 62 62 62 61 61 61 61 61 61 60 59 59 59 59 58 59 58 58 57 57 57 57 57 56 56 56 56 54 52 52 52 51 47 53 52 43 50 51 52
60 61 61 60 60 61 61 62 62 62 62 61 61 61 62 62 62 62 62 61 61 61 61 61 61 62 61 61 61 61 61 61 60 60 59 59 59 59 58 58 58 58 58 58 58 57 57 57 57 57 56 55 53 51 50 50 46 48 45 47 43 48 50
61 61 61 61 61 61 61 62 63 62 62 62 61 62 62 62 62 62 61 60 60 61 61 61 62 62 61 61 61 60 60 60 60 60 59 59 59 59 58 58 59 59 58 58 58 57 57 57 57 57 56 55 54 53 51 51 47 45 40 41 48 45 48
61 61 61 61 61 61 61 61 62 61 61 61 61 61 61 61 61 63 61 60 60 60 61 61 61 61 61 61 60 60 60 60 60 59 59 59 58 59 58 58 57 57 58 58 58 57 57 57 57 57 56 55 54 53 52 52 50 44 42 41 42 44 46
60 61 61 60 60 61 61 61 61 61 61 61 61 60 60 60 61 61 60 59 59 60 60 61 61 61 61 60 59 59 59 60 60 59 59 59 58 59 58 58 56 57 58 58 58 57 57 57 57 57 56 54 54 52 53 51 49 48 42 43 40 41 44
61 60 60 60 60 60 61 61 61 61 61 61 61 61 60 60 60 60 60 59 59 60 60 60 60 60 60 60 59 59 59 59 59 59 58 58 60 59 59 58 58 58 58 58 58 58 57 57 57 56 56 54 53 52 52 50 49 48 43 43 42 40 44
61 61 60 60 60 61 61 61 61 61 61 61 61 60 60 59 60 60 59 59 59 59 59 59 59 60 59 59 59 59 59 59 59 58 59 58 59 59 59 59 58 58 58 58 58 58 58 57 57 56 56 54 53 50 50 48 48 43 38 43 43 42 44
61 61 60 60 60 60 61 61 60 61 61 61 61 61 60 59 59 59 59 59 58 59 59 59 59 59 59 58 58 58 59 59 59 59 58 59 59 59 58 58 59 58 58 59 58 58 58 57 58 57 56 55 53 51 49 48 47 42 38 40 41 43 44
61 61 59 60 60 60 60 60 61 61 61 60 60 60 60 59 59 59 59 58 58 58 58 59 59 59 59 58 58 58 59 59 59 59 59 59 59 59 58 58 58 58 58 57 57 57 57 58 58 58 57 55 55 53 50 47 46 42 39 39 42 41 42
61 61 59 59 60 60 60 61 61 61 61 60 60 60 60 59 58 58 58 57 57 57 57 58 58 59 59 58 58 58 58 59 59 59 59 59 59 59 59 58 58 58 58 58 57 56 57 57 57 57 57 55 55 55 53 47 45 45 40 39 40 39 41
61 61 59 59 60 60 60 60 61 61 61 60 59 59 60 59 57 58 57 57 56 56 57 58 58 58 58 58 58 58 58 58 58 58 58 59 60 59 58 59 58 58 58 57 55 56 56 57 57 57 57 57 56 55 54 48 44 41 40 39 40 41 41
61 60 59 59 59 60 60 60 60 61 60 60 59 59 59 58 57 57 57 56 55 55 55 57 57 57 56 56 56 57 57 57 57 57 57 57 58 58 58 58 58 58 58 58 57 56 56 57 57 56 56 56 56 55 52 45 42 39 39 39 40 40 40
60 60 59 59 59 60 60 60 60 60 60 59 59 59 59 58 57 57 56 54 53 53 54 55 55 55 55 54 55 54 55 56 55 55 56 56 57 57 57 57 57 58 58 58 57 56 56 56 57 56 56 56 56 54 48 42 39 38 38 39 40 40 40
59 60 60 60 59 59 59 59 60 60 60 59 59 58 58 57 55 53 51 50 50 50 50 50 50 51 53 54 53 53 54 54 54 53 54 55 56 57 57 56 56 57 57 58 57 56 56 56 56 55 54 55 55 54 50 44 41 38 39 40 40 40 40
58 60 60 60 59 59 59 59 59 59 59 59 58 58 56 54 51 48 48 47 47 47 48 47 47 49 52 51 52 53 53 53 53 53 53 53 54 54 54 54 54 53 56 58 52 53 55 56 56 55 54 53 54 55 54 48 43 39 40 40 40 41 40
59 59 59 59 59 59 59 58 58 59 58 57 56 55 53 52 49 47 46 45 45 46 45 45 45 45 47 51 51 52 52 52 53 54 55 54 54 55 54 54 55 53 52 51 48 45 47 50 51 54 55 55 54 54 54 51 46 41 40 39 39 40 39
58 58 58 59 59 59 58 58 58 58 57 55 54 53 53 51 48 46 44 44 43 43 42 42 40 39 43 48 51 51 52 52 52 54 55 55 54 53 51 50 50 53 51 51 47 42 41 40 40 42 47 52 53 53 51 48 46 45 41 39 40 40 39
55 58 58 58 58 58 58 58 57 57 55 53 53 51 50 48 46 44 43 42 41 40 41 41 38 39 42 46 49 51 52 53 53 53 54 54 53 51 49 48 47 49 50 52 50 48 44 42 42 42 42 41 41 41 43 46 45 42 42 41 41 40 40
51 57 58 58 58 58 58 57 56 53 52 52 50 47 45 45 44 43 42 40 39 40 40 40 38 41 43 46 46 49 51 52 52 52 53 52 51 49 48 46 45 45 45 52 51 48 47 48 46 44 43 42 41 40 40 41 43 47 45 43 43 45 43
49 51 57 57 56 57 56 55 53 51 50 49 47 43 42 41 41 41 41 41 41 41 41 40 40 42 44 44 45 48 52 52 52 52 51 50 49 47 45 44 43 43 43 46 47 50 51 51 51 49 46 44 42 42 40 40 40 43 46 48 48 48 47
47 49 50 54 56 55 53 50 49 48 48 47 46 42 39 38 38 39 40 41 41 40 39 38 41 43 44 44 45 47 50 49 47 46 44 43 42 40 40 40 39 39 40 42 45 50 52 52 51 48 44 42 41 41 42 41 42 43 43 46 46 47 48
46 47 48 49 50 50 49 47 46 47 46 45 44 43 39 38 38 38 40 40 40 39 38 38 41 43 43 43 43 47 45 44 42 41 40 39 39 39 39 38 37 37 38 39 40 42 47 50 49 46 43 42 39 39 41 42 40 41 44 44 45 45 46
46 46 47 47 47 47 47 46 46 46 44 44 43 42 38 37 37 37 38 39 39 39 39 38 39 41 41 41 43 43 42 41 40 39 39 40 40 40 39 36 35 35 35 36 37 37 39 41 42 41 41 39 39 37 39 41 39 38 39 39 39 40 40
45 45 46 46 47 47 46 46 45 45 43 42 41 41 40 38 38 38 37 38 39 39 39 39 38 39 41 41 43 42 40 38 37 36 37 37 38 39 42 43 40 35 34 36 36 36 37 38 36 36 36 35 35 36 38 40 41 41 39 40 39 40 40
45 45 45 45 47 47 46 45 44 44 43 43 42 42 43 41 40 39 39 39 41 38 39 39 38 38 39 41 42 41 39 38 37 36 37 37 38 38 38 40 41 39 37 37 35 36 36 38 36 35 35 35 36 37 38 39 40 41 41 42 43 43 43
45 45 45 45 46 47 46 45 44 44 44 44 43 43 43 43 42 42 42 41 40 39 38 38 39 38 39 39 41 43 41 39 38 38 37 37 38 38 39 38 39 36 36 35 35 36 36 37 38 38 37 36 36 37 39 41 42 41 41 42 41 42 42
44 45 46 46 46 46 46 45 44 44 44 44 43 43 43 43 42 42 42 42 42 42 41 39 39 38 38 39 39 41 42 40 39 38 38 38 38 38 39 38 38 37 36 36 36 36 37 37 38 39 39 38 39 40 39 41 41 42 42 42 42 41 41
44 44 45 46 45 45 46 46 45 44 44 43 42 42 42 42 42 42 42 42 41 41 42 42 40 38 37 38 38 39 41 41 40 39 38 38 38 39 39 38 38 37 36 36 36 37 37 37 37 39 35 34 34 37 41 41 40 42 42 41 41 41 41
42 43 43 44 44 44 45 45 45 45 44 43 43 42 42 42 41 41 41 41 41 41 41 41 39 38 37 36 36 37 37 38 38 41 37 38 39 39 39 39 40 38 36 36 36 37 37 37 38 36 35 36 36 37 39 41 41 41 41 41 41 41 41
41 42 42 43 44 44 44 44 45 45 44 43 43 42 42 42 41 40 40 40 40 41 41 41 39 37 37 36 36 36 36 36 37 39 39 38 38 41 39 39 38 36 36 36 36 36 36 36 36 36 36 37 37 38 41 41 40 40 39 39 40 40 40